Location: Austin
(30.3000°N, 97.7500°W)
Time: 06:50:17
(UTC-05:00)

CZ-2C R/B - Pass Details

Date: 16 June 2025
Orbit: 702 x 903 km, 98.2° (Epoch: 07 July)

Event Time Altitude Azimuth Distance (km) Brightness Sun altitude
Rises 02:50:28 0° 3° (N) 3,354 7.3 -33.1°
Reaches altitude 10° 02:52:59 10° 356° (N) 2,386 6.2 -32.9°
Enters shadow 02:56:12 32° 330° (NNW) 1,332 4.4 -32.6°
